Tracking 19831 objects as of 23-Aug-2019
HD Live streaming from Space Station
objects crossing your sky now

ATLAS 5 CENTAUR R/B


ATLAS 5 CENTAUR R/B is no longer on orbit


NORAD ID: 40486
Int'l Code: 2015-011E
Perigee: N/A
Apogee: N/A
Inclination: N/A
Period: N/A
Semi major axis: N/A
RCS: N/A
Launch date: March 13, 2015
Source: United States (US)
Launch site: AIR FORCE EASTERN TEST RANGE (AFETR)
Decay date: 2017-08-26

Note: This is a ROCKET BODY
aabbcc
Your satellite tracking list
Your tracking list is empty




NASA's NSSDC Master Catalog

Two Line Element Set (TLE):
1 40486U 15011E   17238.52671928  .99999999 -39887-5  93482-3 0  9993
2 40486  24.9527 209.5642 0794015 319.4523 182.3502 14.82454800 11036
Source of the keplerian elements: AFSPC